Weather History for Bennington, VT

Change the Weather History Date:

Wednesday, April 3, 2013

  Actual Average Record
Temperature  
Mean Temperature 32 °F 40 °F  
Max Temperature 40 °F 51 °F 63 °F (2009)
Min Temperature 24 °F 30 °F 19 °F (2008)
Degree Days  
Heating Degree Days 33 25  
Month to date heating degree days 92 75  
Since 1 July heating degree days 5893 6310  
Cooling Degree Days 0 0  
Month to date cooling degree days 0 0  
Year to date cooling degree days 0 0  
Moisture  
Dew Point 13 °F    
Average Humidity 51    
Maximum Humidity 75    
Minimum Humidity 27    
Precipitation  
Precipitation 0.00 in 0.13 in 0.56 in (2002)
Month to date precipitation 0.11 0.39  
Year to date precipitation 4.05 8.53  
Sea Level Pressure  
Sea Level Pressure 30.07 in    
Wind  
Wind Speed 11 mph (West)    
Max Wind Speed 25 mph    
Max Gust Speed 39 mph    
Visibility 10 miles    
Events      
T = Trace of Precipitation, MM = Missing Value Source: NWS Daily Summary

Daily Weather History Graph

Daily Weather History Graph

Search for Another Location

Airport:

Trip Planner

Search our weather history database for the weather conditions in past years. The results will help you decide how hot, cold, wet, or windy it might be!

Date:

Astronomy

Apr. 03, 2013 Rise Set
Actual Time 6:31 AM EDT 7:21 PM EDT
Civil Twilight 6:02 AM EDT 7:50 PM EDT
Nautical Twilight 5:28 AM EDT 8:24 PM EDT
Astronomical Twilight 4:53 AM EDT 9:00 PM EDT
Moon 2:19 AM EDT (4/3) 12:21 PM EDT (4/3)
Length of Visible Light 13h 48m
Length of Day
12h 50m
Last Quarter, 45% of the Moon is Illuminated
Apr 3
Last Quarter
Apr 10
New
Apr 18
First Quarter
Apr 25
Full
May 2
Last Quarter

Hourly Weather History & Observations

Time (EDT) Temp. Windchill Dew Point Humidity Pressure Visibility Wind Dir Wind Speed Gust Speed Precip Events Conditions
12:05 AM 26.6 °F 18.2 °F 19.4 °F 74% 29.94 in 10.0 mi West 8.1 mph - N/A   Scattered Clouds
12:54 AM 27.0 °F 20.5 °F 19.9 °F 75% 29.98 in 10.0 mi Variable 5.8 mph 19.6 mph N/A   Mostly Cloudy
1:54 AM 26.1 °F 18.4 °F 19.9 °F 78% 29.98 in 10.0 mi West 6.9 mph - N/A   Overcast
2:54 AM 25.0 °F 17.1 °F 18.0 °F 75% 29.97 in 10.0 mi West 6.9 mph - N/A   Partly Cloudy
3:54 AM 25.0 °F 15.5 °F 17.1 °F 72% 29.98 in 10.0 mi WSW 9.2 mph 17.3 mph N/A   Partly Cloudy
4:54 AM 25.0 °F 14.8 °F 15.1 °F 66% 29.99 in 10.0 mi WSW 10.4 mph 18.4 mph N/A   Clear
5:54 AM 24.1 °F 17.0 °F 15.1 °F 69% 30.01 in 10.0 mi SW 5.8 mph - N/A   Clear
6:54 AM 24.1 °F 17.0 °F 14.0 °F 65% 30.04 in 10.0 mi Variable 5.8 mph - N/A   Clear
7:54 AM 26.1 °F 18.4 °F 15.1 °F 63% 30.05 in 10.0 mi West 6.9 mph - N/A   Clear
8:54 AM 28.0 °F 17.0 °F 14.0 °F 56% 30.05 in 10.0 mi West 13.8 mph 24.2 mph N/A   Clear
9:54 AM 30.0 °F 18.7 °F 12.0 °F 47% 30.04 in 10.0 mi West 16.1 mph 25.3 mph N/A   Partly Cloudy
10:54 AM 33.1 °F 22.2 °F 9.0 °F 37% 30.04 in 10.0 mi WNW 17.3 mph 28.8 mph N/A   Partly Cloudy
11:54 AM 35.1 °F 25.5 °F 6.1 °F 30% 30.04 in 10.0 mi WNW 15.0 mph 25.3 mph N/A   Clear
12:54 PM 37.0 °F 28.1 °F 9.0 °F 31% 30.04 in 10.0 mi West 15.0 mph 21.9 mph N/A   Clear
1:54 PM 39.0 °F 31.0 °F 10.0 °F 30% 30.03 in 10.0 mi WNW 13.8 mph 23.0 mph N/A   Clear
2:54 PM 39.0 °F 30.6 °F 9.0 °F 29% 30.05 in 10.0 mi WNW 15.0 mph 31.1 mph N/A   Clear
3:54 PM 37.9 °F 30.0 °F 8.1 °F 29% 30.05 in 10.0 mi WNW 12.7 mph 39.1 mph N/A   Clear
4:54 PM 37.9 °F 29.6 °F 9.0 °F 30% 30.07 in 10.0 mi WSW 13.8 mph 27.6 mph N/A   Clear
5:54 PM 35.1 °F 27.4 °F 10.9 °F 37% 30.10 in 10.0 mi West 10.4 mph 28.8 mph N/A   Clear
6:54 PM 32.0 °F 23.0 °F 12.0 °F 44% 30.14 in 10.0 mi West 11.5 mph 21.9 mph N/A   Clear
7:54 PM 32.0 °F 22.1 °F 12.0 °F 44% 30.18 in 10.0 mi West 13.8 mph 23.0 mph N/A   Overcast
8:54 PM 30.0 °F 25.2 °F 12.0 °F 47% 30.20 in 10.0 mi West 4.6 mph - N/A   Scattered Clouds
9:54 PM 30.0 °F 20.5 °F 12.0 °F 47% 30.23 in 10.0 mi West 11.5 mph - N/A   Clear
10:54 PM 28.9 °F 19.8 °F 12.0 °F 49% 30.24 in 10.0 mi WSW 10.4 mph 17.3 mph N/A   Clear
11:54 PM 28.9 °F 21.1 °F 14.0 °F 54% 30.25 in 10.0 mi West 8.1 mph 16.1 mph N/A   Clear